Location: Poughquag
(41.6090°N, 73.6820°W)
Time: 03:00:18
(UTC-04:00)

Vanguard 1 - Pass Details

Date: 30 May 2020
Orbit: 650 x 3833 km, 34.2° (Epoch: 06 July)

Event Time Altitude Azimuth Distance (km) Brightness Sun altitude
Rises 12:34:25 0° 283° (WNW) 7,888 14.6 69.9°
Reaches altitude 10° 12:40:11 10° 278° (W) 6,938 14.5 70.1°
Maximum altitude 13:00:45 42° 218° (SW) 4,258 14.5 70.2°
Drops below altitude 10° 13:15:45 10° 153° (SSE) 5,133 14.1 69.7°
Sets 13:19:18 0° 146° (SSE) 5,760 14.2 69.5°
